Tracking 31027 objects as of 19-Jul-2025
HD Live streaming from Space Station
objects crossing your sky now

STARLINK-1154

Track STARLINK-1154 now!
10-day predictions
STARLINK-1154 is classified as:


NORAD ID: 45198
Int'l Code: 2020-012W
Perigee: 553.5 km
Apogee: 555.2 km
Inclination: 53.1 °
Period: 95.6 minutes
Semi major axis: 6925 km
RCS: Unknown
Launch date: February 17, 2020
Source: United States (US)
Launch site: AIR FORCE EASTERN TEST RANGE (AFETR)
Your satellite tracking list
STARLINK-2062
Track 1 satellite(s)




NASA's NSSDC Master Catalog

Two Line Element Set (TLE):
1 45198U 20012W   25199.45244477  .00000221  00000-0  33749-4 0  9990
2 45198  53.0556 358.1491 0001276  85.2036 274.9098 15.06399926299755
Source of the keplerian elements: AFSPC